Wind_Speed
17 18 19 19 20 20 21 21 21 22 23 23 23 23 23 23 24 24 25 25 26 26 27 27 29 31 32 33 34 35 35 36 36 36 36 38 38 37
20 21 21 22 22 23 23 23 23 24 25 25 25 24 25 25 25 25 26 26 27 28 28 28 29 30 32 34 35 36 37 38 38 38 38 39 39 39
23 23 24 24 25 25 25 25 26 26 26 27 27 26 26 27 27 27 27 27 28 28 29 30 30 30 31 33 35 36 37 39 40 40 40 40 41 41
25 26 26 27 27 28 27 27 27 28 28 28 29 29 28 28 29 29 29 28 28 29 29 30 31 31 32 33 34 36 37 39 40 41 42 42 42 42
28 28 28 29 30 30 29 29 30 30 30 30 30 30 30 30 30 31 30 30 30 30 30 30 31 32 33 33 34 35 37 39 40 42 43 43 43 44
31 31 31 31 32 32 32 32 32 32 32 32 32 32 32 32 32 32 32 32 31 31 32 31 32 33 33 34 35 35 36 38 39 41 43 44 44 45
33 33 34 33 33 34 34 34 34 34 34 34 34 33 34 34 34 34 34 33 33 33 33 33 33 34 34 35 36 36 37 38 39 40 42 44 45 46
34 35 36 36 36 36 36 37 37 36 36 36 36 36 36 36 36 36 36 35 35 36 35 35 35 35 35 36 36 36 37 38 39 40 41 43 45 46
37 37 37 37 37 37 37 37 38 38 38 38 38 38 38 38 39 38 38 38 38 38 38 37 37 37 36 36 37 37 37 38 39 40 42 43 44 45
38 38 38 38 38 39 39 39 39 39 40 40 40 40 41 41 41 41 41 40 40 40 41 39 38 38 38 38 38 38 38 39 39 40 40 42 43 45
41 40 40 40 41 41 41 41 41 42 42 43 43 43 43 43 43 43 43 43 41 41 42 41 40 40 39 39 39 39 39 39 39 39 40 41 42 43
43 43 43 43 43 44 44 44 44 44 45 45 45 45 45 44 45 45 45 44 43 42 42 43 42 41 40 39 39 39 39 39 39 39 40 41 41 42
45 45 45 45 45 46 46 47 47 47 47 47 47 47 48 47 47 47 47 46 45 44 44 44 43 42 42 41 40 40 39 39 39 38 39 40 41 42
47 47 47 48 48 48 48 49 49 50 49 49 50 50 50 49 49 48 48 47 46 45 45 45 44 43 42 41 40 40 40 39 39 39 39 39 40 41
48 49 49 50 51 51 51 51 52 52 52 52 52 52 51 51 50 49 49 48 47 46 45 44 44 43 43 42 41 40 39 39 39 39 39 39 40 40
50 51 51 52 53 53 53 54 54 54 55 55 54 53 52 52 51 51 50 48 47 46 45 44 44 44 43 42 41 39 39 38 38 38 38 38 39 40
53 53 53 55 55 56 55 55 55 56 55 54 53 52 52 51 50 50 50 49 47 46 45 44 44 43 42 41 40 39 39 38 38 38 38 38 37 38
53 54 55 56 57 57 56 56 55 55 54 53 52 51 51 51 50 49 48 46 45 44 43 42 42 42 41 39 38 38 38 37 37 37 37 37 36 37
55 56 55 56 56 56 56 55 55 54 53 52 51 50 50 49 47 47 46 44 43 41 41 40 39 39 39 37 37 38 37 36 36 36 36 36 36 36
55 55 55 55 55 55 54 53 53 52 50 50 49 48 46 45 43 42 41 41 40 39 38 37 37 37 37 37 36 35 36 35 34 34 34 35 35 35
55 54 54 54 53 53 52 51 50 49 47 46 45 44 43 42 42 41 40 39 38 37 36 36 36 36 36 35 34 33 34 34 34 33 33 34 34 34
53 53 52 51 51 50 49 48 47 45 44 43 41 40 39 38 38 37 36 36 36 35 34 34 34 34 34 33 32 31 32 32 32 32 32 32 33 33
50 49 48 47 47 46 45 44 42 40 38 37 36 36 35 35 34 33 32 32 32 31 31 31 32 31 31 30 30 30 30 30 30 30 30 30 31 31
Wind_Direction
309 310 311 313 313 314 315 315 315 314 313 313 312 309 307 305 302 300 297 295 292 289 285 280 275 270 267 265 262 261 259 258 257 256 254 252 251 251
305 306 307 307 308 309 310 311 311 312 312 312 312 309 306 304 302 300 298 295 292 289 287 284 280 275 271 267 264 262 260 258 257 257 256 254 253 252
300 301 302 303 304 305 305 306 307 309 310 310 310 309 307 305 303 301 298 296 294 290 287 285 283 280 276 271 267 264 262 259 258 256 256 255 254 253
298 299 300 301 302 302 302 302 304 306 307 307 307 307 306 304 303 302 299 296 294 292 289 286 284 281 279 276 272 268 265 262 259 257 256 255 254 253
295 297 298 299 299 300 300 300 301 303 303 303 304 304 304 303 302 301 299 297 294 293 291 288 285 282 279 277 275 272 268 264 261 258 256 255 254 253
294 295 296 296 297 298 298 298 299 300 301 301 301 301 301 301 301 300 298 296 295 293 292 289 287 284 281 278 277 274 271 268 264 261 258 256 254 253
293 294 294 294 295 295 296 296 297 298 299 299 299 300 300 300 300 299 297 296 294 293 291 290 288 285 282 279 278 276 273 270 266 263 260 258 256 254
291 291 292 293 293 294 294 294 296 296 296 297 298 298 298 299 299 298 297 295 294 292 291 290 289 286 283 280 277 276 275 272 269 265 262 260 257 255
288 289 290 291 292 292 292 292 293 294 295 295 297 297 297 298 298 297 297 296 294 292 290 289 288 287 284 282 280 277 274 272 270 267 264 262 259 256
288 289 289 291 291 291 291 292 292 293 293 294 295 295 296 296 296 296 296 295 294 292 290 289 287 286 285 283 281 278 275 272 270 268 266 263 260 258
287 287 288 289 290 289 290 291 292 292 291 292 293 294 294 294 294 294 294 294 292 290 288 288 287 286 284 282 281 278 276 273 271 269 266 263 261 259
285 286 287 289 289 289 290 291 292 291 290 291 292 292 293 292 292 293 293 292 291 289 287 287 286 285 284 282 280 278 275 273 271 269 267 264 261 260
286 286 287 288 289 290 290 290 290 290 289 290 291 291 291 291 290 290 290 289 289 287 286 285 285 284 283 281 279 278 276 274 272 269 267 265 262 260
286 287 289 290 290 290 290 290 290 290 290 290 290 290 289 289 288 287 287 287 286 285 284 284 284 283 282 280 278 277 276 274 272 269 266 265 263 261
289 289 290 290 290 290 290 290 291 291 290 290 290 289 289 288 287 286 286 285 284 284 283 282 282 281 280 279 277 276 275 273 272 270 268 265 263 261
290 290 291 291 290 290 290 290 290 289 289 289 289 288 288 287 286 285 284 283 282 281 280 279 279 278 278 278 277 275 274 273 272 271 269 266 263 261
290 291 291 291 291 291 290 289 289 289 289 289 288 288 287 287 285 283 283 281 280 279 278 278 277 277 277 276 274 273 272 271 271 270 269 267 262 259
292 292 292 291 291 291 290 289 290 289 289 288 287 286 286 285 284 282 281 280 279 278 277 275 275 275 274 273 273 271 270 270 270 269 267 265 262 259
293 293 292 292 291 290 290 290 289 289 288 287 287 285 285 284 282 281 279 278 277 276 275 274 273 273 272 271 270 270 270 269 269 267 266 265 263 260
293 293 292 292 291 291 291 290 289 288 287 286 285 284 283 282 281 279 277 277 275 274 272 272 272 272 272 271 269 268 268 268 268 267 266 265 262 260
294 293 293 293 293 292 291 290 289 288 287 285 284 283 281 279 278 277 275 274 272 272 270 271 271 272 271 270 269 268 267 267 267 267 266 265 263 260
294 293 293 293 292 292 291 291 289 288 287 285 282 280 279 278 277 276 275 273 271 270 270 270 270 270 269 269 268 267 267 267 267 266 266 265 264 260
294 294 294 293 293 293 292 291 290 288 285 282 279 278 277 277 275 275 274 272 269 269 269 268 268 267 267 266 266 266 266 265 265 266 267 266 264 261
Height
5870 5869 5867 5866 5864 5863 5861 5859 5858 5855 5854 5852 5850 5848 5846 5844 5843 5841 5839 5838 5837 5836 5836 5835 5835 5836 5837 5838 5839 5840 5842 5844 5846 5848 5850 5852 5854 5857
5866 5865 5863 5862 5860 5858 5857 5855 5853 5851 5849 5846 5845 5843 5841 5839 5837 5835 5833 5832 5830 5829 5828 5828 5827 5827 5828 5828 5829 5831 5832 5834 5836 5838 5840 5842 5845 5848
5861 5860 5859 5857 5855 5854 5852 5850 5848 5846 5844 5841 5839 5837 5835 5833 5830 5829 5827 5825 5824 5822 5821 5820 5819 5819 5819 5819 5819 5820 5822 5823 5825 5827 5830 5832 5835 5838
5856 5854 5853 5851 5849 5847 5846 5844 5842 5840 5838 5835 5833 5830 5828 5826 5824 5822 5820 5818 5816 5815 5813 5812 5811 5810 5809 5809 5809 5810 5811 5812 5814 5816 5819 5821 5824 5826
5850 5848 5847 5845 5843 5841 5839 5837 5835 5833 5831 5829 5826 5824 5821 5819 5816 5814 5812 5810 5808 5806 5805 5804 5802 5801 5800 5800 5799 5800 5800 5801 5803 5804 5806 5809 5812 5815
5843 5841 5840 5838 5836 5834 5832 5830 5827 5825 5823 5821 5819 5816 5814 5811 5808 5806 5804 5802 5800 5798 5796 5795 5793 5792 5790 5790 5789 5789 5789 5789 5790 5792 5794 5796 5799 5802
5835 5833 5831 5830 5828 5825 5824 5821 5819 5817 5814 5812 5810 5808 5805 5802 5800 5797 5795 5793 5791 5788 5787 5785 5783 5782 5781 5779 5778 5778 5778 5778 5778 5780 5781 5783 5786 5789
5827 5825 5823 5821 5819 5817 5814 5812 5810 5808 5805 5803 5801 5799 5796 5793 5790 5787 5785 5783 5781 5779 5776 5775 5773 5772 5770 5769 5768 5767 5766 5766 5766 5767 5769 5770 5773 5775
5817 5815 5813 5811 5809 5807 5805 5802 5800 5797 5795 5793 5791 5788 5786 5783 5780 5777 5774 5772 5770 5767 5765 5764 5762 5760 5759 5757 5757 5756 5755 5755 5754 5755 5756 5757 5759 5762
5807 5805 5803 5801 5799 5797 5794 5792 5790 5787 5784 5782 5780 5777 5774 5771 5768 5766 5763 5761 5758 5755 5752 5752 5750 5748 5747 5746 5744 5743 5743 5742 5742 5742 5743 5744 5746 5748
5796 5794 5792 5791 5788 5785 5783 5781 5779 5776 5773 5770 5768 5766 5763 5760 5756 5753 5751 5748 5746 5744 5740 5738 5738 5736 5735 5733 5732 5731 5730 5730 5730 5730 5730 5731 5733 5735
5785 5783 5781 5779 5776 5773 5771 5769 5766 5764 5760 5757 5755 5753 5750 5747 5743 5740 5737 5734 5732 5731 5728 5725 5724 5722 5722 5721 5719 5718 5717 5717 5717 5717 5717 5718 5720 5721
5772 5770 5768 5766 5763 5760 5758 5755 5752 5749 5746 5744 5741 5739 5736 5733 5730 5726 5723 5720 5718 5717 5715 5712 5710 5709 5707 5707 5706 5705 5704 5704 5704 5704 5704 5705 5706 5708
5759 5757 5754 5752 5749 5747 5744 5741 5737 5734 5731 5729 5726 5724 5721 5718 5715 5711 5709 5706 5704 5702 5701 5698 5696 5695 5693 5693 5693 5692 5691 5691 5691 5691 5692 5692 5693 5695
5745 5743 5740 5737 5734 5732 5729 5725 5722 5718 5715 5712 5710 5707 5704 5701 5698 5696 5693 5691 5689 5687 5685 5684 5682 5680 5679 5679 5679 5678 5678 5678 5677 5678 5679 5679 5681 5682
5731 5728 5725 5722 5718 5716 5712 5709 5705 5701 5698 5695 5692 5690 5686 5684 5682 5679 5677 5675 5674 5673 5671 5669 5667 5666 5665 5665 5664 5665 5665 5665 5665 5665 5666 5667 5668 5669
5714 5711 5708 5705 5701 5698 5695 5691 5688 5684 5681 5678 5675 5672 5669 5667 5665 5662 5660 5659 5658 5657 5656 5655 5653 5652 5651 5651 5651 5651 5651 5652 5652 5652 5653 5654 5655 5656
5698 5695 5691 5687 5683 5680 5676 5673 5670 5666 5663 5659 5656 5654 5652 5650 5648 5646 5644 5642 5641 5641 5640 5640 5639 5638 5638 5638 5638 5637 5638 5639 5639 5639 5640 5641 5643 5644
5681 5677 5673 5669 5665 5662 5658 5655 5651 5648 5644 5641 5639 5636 5634 5632 5630 5629 5628 5627 5626 5626 5625 5625 5625 5624 5624 5625 5626 5625 5625 5626 5626 5627 5628 5629 5631 5632
5664 5660 5656 5652 5648 5644 5640 5636 5633 5630 5627 5624 5622 5619 5617 5616 5614 5613 5612 5612 5611 5611 5611 5612 5611 5611 5611 5612 5613 5614 5613 5614 5615 5615 5616 5617 5618 5620
5646 5642 5638 5634 5630 5626 5622 5618 5615 5612 5610 5607 5605 5603 5601 5600 5599 5599 5598 5598 5597 5597 5598 5599 5599 5599 5599 5599 5601 5602 5602 5602 5603 5604 5605 5605 5607 5608
5629 5625 5621 5617 5613 5609 5605 5602 5599 5596 5594 5592 5590 5588 5587 5586 5585 5585 5585 5585 5585 5585 5586 5586 5587 5587 5587 5588 5589 5591 5592 5592 5592 5593 5594 5595 5595 5597
5612 5608 5604 5600 5596 5592 5589 5586 5584 5581 5579 5577 5576 5575 5574 5574 5573 5573 5573 5573 5573 5574 5574 5575 5576 5576 5577 5577 5579 5580 5581 5582 5582 5583 5584 5585 5585 5587